Location: Unspecified
(48.2082°N, 0.0000°E)
Time: 18:08:36
(UTC+00:00)

A-11 Canister half - Pass Details

Date: 21 June 2019
Orbit: 1514 x 1686 km, 47.2° (Epoch: 17 August)

Event Time Altitude Azimuth Distance (km) Brightness Sun altitude
Rises 11:49:27 0° 242° (WSW) 4,889 11.8 65.1°
Reaches altitude 10° 11:52:39 10° 240° (WSW) 3,885 11.4 65.2°
Maximum altitude 12:02:28 71° 159° (SSE) 1,683 11.8 65.2°
Drops below altitude 10° 12:11:57 10° 79° (ENE) 3,755 11.1 65.1°
Sets 12:14:58 0° 77° (ENE) 4,720 11.5 65.1°
